[[{"header":{"parameterUnit":"m.s-1","parameterCategory":1,"la1":30.2991,"la2":30.254,"lo1":-89.0895,"lo2":-89.0444,"dx":0.0017,"dy":0.0017,"nx":28,"ny":28,"refTime":"2023-01-20T09:00:00:Z","depth":0,"parameterNumber":2,"parameterNumberName":"U-component_of_WINDS"},"data":[0,0,0,0,0,0,0,0,0,0,0,0,0,0,0,0,0,0,0,0,0,0,0,0,0,0,0,0,0,0,0,0,0,0,0,0,0,0,0,0,0,0,0,0,0,0,0,0,0,0,0,0,0,0,0,0,0,0,-4.984,-4.984,0,-4.9865,-4.9866,-4.9866,-4.9714,-4.971,-4.9706,-4.9702,-4.9728,-4.9733,-4.9738,0,0,0,0,0,0,0,0,0,0,0,0,0,-4.9659,-4.9663,-4.984,-4.984,-4.984,-4.9865,-4.9866,-4.9866,-4.9715,-4.971,-4.9705,-4.97,-4.9727,-4.9732,-4.9738,0,0,0,0,0,0,0,0,0,0,0,0,0,-4.9717,-4.9665,-4.9839,-4.9768,-4.9762,-4.9865,-4.9866,-4.9866,-4.9716,-4.971,-4.9703,-4.9697,-4.9725,-4.9732,-4.9739,-4.9912,0,0,-4.9761,-4.9764,0,0,0,0,0,0,0,0,-4.9714,-4.9723,-4.9778,-4.9773,-4.9766,-4.978,-4.9811,-4.9882,-4.9718,-4.9734,-4.9701,-4.9694,-4.9751,-4.9755,-4.9774,-4.9913,-4.9915,-4.9761,-4.9765,-4.9769,-4.9771,0,0,0,0,0,0,0,-4.971,-4.9721,-4.985,-4.9779,-4.9772,-4.9734,-4.9735,-4.9824,-4.9778,-4.9732,-4.9721,-4.9726,-4.9746,-4.9768,-4.9774,-4.9915,-4.9761,-4.9767,-4.9772,-4.9774,-5.0197,-5.0204,0,0,0,0,0,0,-4.9715,-4.9719,-4.9849,-4.985,-4.9723,-4.9743,-4.9744,-4.9782,-4.9777,-4.977,-4.9731,-4.9719,-4.9759,-4.9766,-4.9774,-4.9977,-4.9768,-4.9775,-4.9779,-5.019,-5.0199,-5.0206,0,0,0,0,0,0,-4.9712,-4.9728,-4.9848,-4.9782,-4.9794,-4.9753,-4.9797,-4.9786,-4.9807,-4.9776,-4.9767,-4.9762,-4.9754,-4.9764,-4.9879,-4.9976,-4.9778,-4.9785,-5.0182,-5.0193,-5.0202,-5.0384,0,0,0,0,0,0,-4.9708,-4.9728,-4.9794,-4.9784,-4.9798,-4.9953,-4.9803,-4.9791,-4.982,-4.9804,-4.9803,-4.9796,-4.975,-4.9869,-4.9886,-4.9982,-4.979,-5.0173,-5.0187,-5.0199,-5.037,-5.04,-5.0426,0,0,0,0,0,-4.9702,-4.9844,-4.9798,-4.9815,-4.988,-4.9959,-4.9967,-4.991,-4.9829,-4.9894,-4.9874,-4.9797,-4.9962,-4.9882,-4.99,-5.0,-5.0167,-5.0183,-5.0198,-5.0357,-5.0394,-5.0425,0,0,0,0,0,0,-4.9866,-4.9842,-4.979,-4.9934,-4.995,-4.9933,-5.0014,-4.9951,-4.999,-4.9973,-4.9901,-4.9902,-5.0029,-5.0025,-4.9937,-5.0167,-5.005,-5.007,-5.0165,-5.02,-5.0227,-5.0226,-4.9796,0,0,0,0,0,-4.9919,-4.9986,-4.996,-5.009,-5.01,-5.0056,-5.0089,-5.0043,-5.0057,-5.0063,-5.0051,-5.0067,-5.0122,-5.016,-5.021,-5.0368,-5.0365,-5.0445,-5.0473,-5.0496,-5.0515,-5.0598,-5.0633,-5.0258,-5.0258,-5.0257,0,0,-5.003,-5.0024,-5.0071,-5.0123,-5.0129,-5.02,-5.0063,-5.0143,-5.0195,-5.0075,-5.0183,-5.0175,-5.0187,-5.0325,-5.0385,-5.0326,-5.0617,-5.0516,-5.0535,-5.0541,-5.0618,-5.0653,-5.0685,-5.0268,-5.0266,-5.0265,0,0,-5.0267,-5.0269,-5.0377,-5.0387,-5.0399,-5.0368,-5.0395,-5.0388,-5.0378,-5.0485,-5.0396,-5.0456,-5.0553,-5.0566,-5.0585,-5.0827,-5.0757,-5.0845,-5.0992,-5.1074,-5.1103,-5.1129,-5.1216,-5.1248,-5.0863,-5.0863,-5.0864,0,-5.0402,-5.0505,-5.0441,-5.0527,-5.0553,-5.0447,-5.0556,-5.0568,-5.0596,-5.0616,-5.0549,-5.0668,-5.067,-5.0808,-5.0867,-5.0886,-5.0914,-5.0845,-5.1104,-5.1129,-5.1153,-5.1235,-5.1267,-5.0874,-5.0873,-5.0872,-5.0871,0,-5.0671,-5.0744,-5.083,-5.0859,-5.0894,-5.0991,-5.0942,-5.0985,-5.0936,-5.0913,-5.1023,-5.1021,-5.1068,-5.1097,-5.1051,-5.123,-5.1193,-5.1117,-5.0998,-5.12,-5.1276,-5.1307,-5.0889,-5.0886,-5.0882,-5.088,0,0,-5.1014,-5.1006,-5.1039,-5.1051,-5.1056,-5.1111,-5.1203,-5.1249,-5.1287,-5.131,-5.1386,-5.147,-5.1399,-5.1421,-5.1375,-5.1447,-5.1639,-5.1361,-5.136,-5.1414,-5.1836,-5.1895,-5.1932,-5.1592,-5.1598,-5.1602,-5.1835,0,-5.1246,-5.1404,-5.1349,-5.1509,-5.1575,-5.1476,-5.1556,-5.1568,-5.1548,-5.1601,-5.1579,-5.1641,-5.1542,-5.1555,-5.1622,-5.1602,-5.1723,-5.1584,-5.1662,-5.1666,-5.1664,-5.1971,-5.2033,-5.2254,-5.1865,-5.187,-5.1873,0,-5.1539,-5.1573,-5.1741,-5.1734,-5.176,-5.1833,-5.1871,-5.1923,-5.1934,-5.1914,-5.1939,-5.1878,-5.1967,-5.1848,-5.1971,-5.1878,-5.1906,-5.1901,-5.1908,-5.1914,-5.1783,-5.1987,-5.2322,-5.2356,-5.1919,-5.1915,-5.1912,0,-5.1773,-5.1861,-5.1972,-5.1986,-5.1981,-5.2035,-5.2035,-5.204,-5.2071,-5.2103,-5.2123,-5.2165,-5.2189,-5.2223,-5.2175,-5.2093,-5.2305,-5.2182,-5.2292,-5.2294,-5.2342,-5.234,-5.2688,-5.236,-5.2359,-5.2358,-5.2358,0,-5.2039,-5.2146,-5.2078,-5.2147,-5.2263,-5.2198,-5.2315,-5.2304,-5.2309,-5.2374,-5.2289,-5.2352,-5.2283,-5.2339,-5.2302,-5.2409,-5.242,-5.2408,-5.2397,-5.2416,-5.2418,-5.2434,-5.2418,-5.2367,-5.2365,-5.2363,-5.2362,0,-5.2321,-5.228,-5.2395,-5.238,-5.2379,-5.2466,-5.2453,-5.2516,-5.249,-5.2573,-5.2589,-5.2549,-5.2611,-5.2565,-5.2626,-5.2601,-5.2743,-5.271,-5.274,-5.2731,-5.2844,-5.2834,-5.3216,-5.3262,-5.2903,-5.2907,-5.291,0,-5.2494,-5.2574,-5.2568,-5.2605,-5.2611,-5.2672,-5.2703,-5.2642,-5.2678,-5.2696,-5.2757,-5.2812,-5.2852,-5.2955,-5.2931,-5.2978,-5.2945,-5.3076,-5.2952,-5.2969,-5.2948,-5.2945,-5.2952,-5.3102,-5.3106,-5.3109,-5.3112,0,-5.2806,-5.2781,-5.2829,-5.2871,-5.291,-5.294,-5.2963,-5.2998,-5.2936,-5.298,-5.3042,-5.3074,-5.3136,-5.3191,-5.3229,-5.3228,-5.3161,-5.3151,-5.3179,-5.32,-5.3214,-5.3209,-5.2809,-5.3143,-5.314,-5.3137,-5.3136,-5.3135,-5.3039,-5.3105,-5.3111,-5.3168,-5.3178,-5.3202,-5.326,-5.3241,-5.3292,-5.3338,-5.3298,-5.3373,-5.3381,-5.3424,-5.3433,-5.349,-5.3436,-5.3477,-5.3487,-5.3498,-5.3515,-5.3205,-5.3496,-5.3495,-5.3494,-5.3494,-5.3493,0,-5.3346,-5.3345,-5.3398,-5.3433,-5.3477,-5.3409,-5.343,-5.3472,-5.3539,-5.3552,-5.3594,-5.3665,-5.3718,-5.3698,-5.3745,-5.3794,-5.3764,-5.3809,-5.3805,-5.3806,-5.356,-5.3531,-5.3832,-5.3832,-5.3832,-5.3832,-5.3832,-5.3832,-5.3512,-5.3621,-5.3597,-5.371,-5.3707,-5.378,-5.3798,-5.3819,-5.3829,-5.3913,-5.3956,-5.3943,-5.3943,-5.3989,-5.4034,-5.4027,-5.4048,-5.4105,-5.4086,-5.3857,-5.3823,-5.3792,-5.3764,-5.411,-5.411,-5.4328,-5.433,-5.4331]},{"header":{"parameterUnit":"m.s-1","parameterCategory":1,"la1":30.2991,"la2":30.254,"lo1":-89.0895,"lo2":-89.0444,"dx":0.0017,"dy":0.0017,"nx":28,"ny":28,"refTime":"2023-01-20T09:00:00:Z","depth":0,"parameterNumber":3,"parameterNumberName":"V-component_of_WINDS"},"data":[0,0,0,0,0,0,0,0,0,0,0,0,0,0,0,0,0,0,0,0,0,0,0,0,0,0,0,0,0,0,0,0,0,0,0,0,0,0,0,0,0,0,0,0,0,0,0,0,0,0,0,0,0,0,0,0,0,0,-2.9392,-2.9392,0,-2.9417,-2.9417,-2.9418,-2.9387,-2.9385,-2.9384,-2.9383,-2.9408,-2.941,-2.9412,0,0,0,0,0,0,0,0,0,0,0,0,0,-2.9314,-2.9316,-2.9392,-2.9392,-2.9392,-2.9417,-2.9417,-2.9418,-2.9387,-2.9385,-2.9384,-2.9383,-2.9408,-2.941,-2.9412,0,0,0,0,0,0,0,0,0,0,0,0,0,-2.9344,-2.9316,-2.9392,-2.938,-2.9379,-2.9417,-2.9417,-2.9418,-2.9387,-2.9385,-2.9384,-2.9382,-2.9407,-2.9409,-2.9412,-2.9462,0,0,-2.942,-2.9421,0,0,0,0,0,0,0,0,-2.9343,-2.9347,-2.9381,-2.9381,-2.938,-2.9397,-2.9399,-2.9433,-2.9387,-2.9384,-2.9383,-2.9381,-2.9406,-2.9408,-2.9417,-2.9464,-2.9465,-2.942,-2.9422,-2.9423,-2.9424,0,0,0,0,0,0,0,-2.9341,-2.9346,-2.9402,-2.9382,-2.9381,-2.9372,-2.9375,-2.9405,-2.9404,-2.9384,-2.9382,-2.9385,-2.9405,-2.9414,-2.9417,-2.9465,-2.942,-2.9422,-2.9424,-2.9425,-2.9552,-2.9554,0,0,0,0,0,0,-2.934,-2.9344,-2.9401,-2.9402,-2.9357,-2.9375,-2.9378,-2.9393,-2.9404,-2.9404,-2.9387,-2.9384,-2.9411,-2.9414,-2.9418,-2.9476,-2.9423,-2.9425,-2.9427,-2.955,-2.9552,-2.9554,0,0,0,0,0,0,-2.9339,-2.9345,-2.94,-2.9373,-2.9379,-2.9378,-2.9396,-2.9395,-2.9404,-2.9406,-2.9405,-2.9397,-2.941,-2.9414,-2.9451,-2.9477,-2.9426,-2.9429,-2.9548,-2.9551,-2.9553,-2.9594,0,0,0,0,0,0,-2.9336,-2.9345,-2.9365,-2.9373,-2.9381,-2.9433,-2.9397,-2.9396,-2.9409,-2.9405,-2.9415,-2.9415,-2.9409,-2.9447,-2.9454,-2.9479,-2.9431,-2.9546,-2.9549,-2.9552,-2.959,-2.9598,-2.9604,0,0,0,0,0,-2.9334,-2.9376,-2.9366,-2.9373,-2.9405,-2.9435,-2.9439,-2.9431,-2.9411,-2.943,-2.9431,-2.9415,-2.9473,-2.9451,-2.9458,-2.9485,-2.9544,-2.9548,-2.9552,-2.9587,-2.9596,-2.9604,0,0,0,0,0,0,-2.937,-2.9377,-2.9366,-2.9412,-2.9423,-2.943,-2.9454,-2.9441,-2.9458,-2.9454,-2.9443,-2.9446,-2.9484,-2.9488,-2.9464,-2.9533,-2.9505,-2.9511,-2.9529,-2.9538,-2.9544,-2.9542,-2.9433,0,0,0,0,0,-2.9384,-2.9407,-2.9412,-2.9452,-2.9458,-2.9455,-2.9467,-2.946,-2.9471,-2.9476,-2.9479,-2.949,-2.9511,-2.9524,-2.9544,-2.9591,-2.9591,-2.9612,-2.9619,-2.9625,-2.9629,-2.9653,-2.9661,-2.9568,-2.9568,-2.9568,0,0,-2.9411,-2.9418,-2.9434,-2.9459,-2.9467,-2.9491,-2.9459,-2.9486,-2.9504,-2.948,-2.9514,-2.9517,-2.9529,-2.957,-2.9589,-2.9575,-2.9655,-2.963,-2.9634,-2.9636,-2.9658,-2.9667,-2.9674,-2.957,-2.957,-2.9569,0,0,-2.9474,-2.9482,-2.9516,-2.9524,-2.9536,-2.9533,-2.9541,-2.9549,-2.955,-2.9585,-2.9567,-2.9587,-2.9623,-2.9631,-2.964,-2.9704,-2.9689,-2.9711,-2.9746,-2.9769,-2.9776,-2.9783,-2.9804,-2.9812,-2.9715,-2.9716,-2.9716,0,-2.9507,-2.9543,-2.9534,-2.9562,-2.9573,-2.9552,-2.9585,-2.9593,-2.9611,-2.9619,-2.9603,-2.9646,-2.9652,-2.9695,-2.971,-2.9719,-2.9726,-2.9709,-2.9776,-2.9783,-2.9788,-2.9809,-2.9817,-2.9718,-2.9718,-2.9718,-2.9717,0,-2.9583,-2.9608,-2.9633,-2.965,-2.9664,-2.9694,-2.9689,-2.9704,-2.9695,-2.9694,-2.9728,-2.9735,-2.9754,-2.9764,-2.9756,-2.9804,-2.9795,-2.9778,-2.9749,-2.98,-2.9819,-2.9827,-2.9722,-2.9721,-2.972,-2.9719,0,0,-2.967,-2.968,-2.969,-2.9696,-2.9707,-2.9726,-2.9755,-2.9773,-2.9785,-2.9798,-2.9821,-2.9851,-2.9835,-2.9845,-2.9837,-2.9857,-2.9906,-2.9837,-2.9838,-2.9849,-2.9958,-2.997,-2.9979,-2.9896,-2.9897,-2.9899,-2.9957,0,-2.9732,-2.9782,-2.9773,-2.9821,-2.9843,-2.9823,-2.9847,-2.9856,-2.9856,-2.9874,-2.9873,-2.9894,-2.9871,-2.9877,-2.9896,-2.9896,-2.9927,-2.9892,-2.9916,-2.9917,-2.9913,-2.9989,-3.0003,-3.0057,-2.9964,-2.9965,-2.9966,0,-2.9811,-2.9825,-2.9875,-2.9881,-2.989,-2.9912,-2.9928,-2.9946,-2.9954,-2.9952,-2.9963,-2.9951,-2.9979,-2.995,-2.9987,-2.9962,-2.9972,-2.9973,-2.9975,-2.9976,-2.9944,-2.9992,-3.0074,-3.0082,-2.9978,-2.9977,-2.9976,0,-2.9868,-2.99,-2.9933,-2.994,-2.9948,-2.9964,-2.9967,-2.9975,-2.9986,-2.9999,-3.0006,-3.0023,-3.0031,-3.0044,-3.0036,-3.0017,-3.0074,-3.0045,-3.0072,-3.0072,-3.0085,-3.0084,-3.0169,-3.0092,-3.0092,-3.0092,-3.0092,0,-2.9937,-2.9968,-2.9959,-2.9979,-3.0013,-3.0003,-3.0036,-3.0037,-3.0043,-3.0063,-3.0047,-3.0066,-3.0055,-3.0073,-3.0067,-3.0097,-3.0102,-3.01,-3.0098,-3.0101,-3.0101,-3.0106,-3.0102,-3.0094,-3.0094,-3.0093,-3.0093,0,-3.0006,-3.0002,-3.0036,-3.004,-3.0042,-3.0066,-3.0069,-3.0088,-3.0086,-3.0111,-3.0116,-3.0112,-3.0132,-3.0126,-3.0147,-3.0143,-3.0181,-3.0175,-3.0178,-3.0176,-3.0203,-3.02,-3.0294,-3.0305,-3.0223,-3.0223,-3.0224,0,-3.0051,-3.0074,-3.008,-3.0091,-3.0096,-3.0116,-3.0127,-3.0117,-3.0129,-3.014,-3.0157,-3.0175,-3.0189,-3.0221,-3.022,-3.0236,-3.0229,-3.0261,-3.0232,-3.0233,-3.0228,-3.0226,-3.0228,-3.0267,-3.0268,-3.0268,-3.0269,0,-3.0129,-3.0125,-3.0141,-3.0157,-3.017,-3.0182,-3.0192,-3.0202,-3.0193,-3.0207,-3.0227,-3.0237,-3.0259,-3.0276,-3.029,-3.0294,-3.0279,-3.0278,-3.0285,-3.0288,-3.0288,-3.0287,-3.0193,-3.0276,-3.0275,-3.0275,-3.0275,-3.0274,-3.0186,-3.0205,-3.0211,-3.023,-3.0236,-3.0245,-3.0262,-3.0262,-3.0278,-3.0294,-3.0288,-3.031,-3.0317,-3.0334,-3.0339,-3.0356,-3.0343,-3.0354,-3.0356,-3.0359,-3.0361,-3.0286,-3.0358,-3.0358,-3.0358,-3.0358,-3.0358,0,-3.0262,-3.0265,-3.0282,-3.0296,-3.031,-3.0295,-3.0305,-3.0318,-3.0338,-3.0345,-3.0359,-3.0381,-3.0397,-3.0397,-3.0412,-3.0426,-3.042,-3.043,-3.0428,-3.0429,-3.0372,-3.0364,-3.0435,-3.0435,-3.0435,-3.0435,-3.0435,-3.0435,-3.0303,-3.0334,-3.0331,-3.0363,-3.0366,-3.0388,-3.0394,-3.0402,-3.0408,-3.0433,-3.0446,-3.0446,-3.045,-3.0465,-3.048,-3.0479,-3.0485,-3.0498,-3.0494,-3.0441,-3.0433,-3.0426,-3.0418,-3.0499,-3.0499,-3.055,-3.055,-3.0551]}]]